Tianwen

operational
NORAD ID: 52390 Int'l Des: 2022-046 Owner: CGSTL Country: CN
LEOCIRCULARRETROGRADE

About Tianwen

Description loading...

Live Position

Loading 3D Globe...

Upcoming Passes

Altitude History

Altitude vs Time

uPlot chart will show altitude changes over time

Two-Line Element Set

1 52390U 22046C 26062.14146890 .00194252 00000-0 11954-2 0 9997
2 52390 97.4794 175.9561 0003099 237.1500 122.9467 15.76646628213899
Epoch: Mar 3, 2026 • Age: 17 hours

Current Status

Altitude 355.4 km
Velocity 7.69 km/s
Sub-Earth Point -42.27°S, 128.05°E
Launch Date Apr 30, 2022
Age 3.8 years
Type other

Technical Details

Classification Payload
Mass 43.00 kg
Dry Mass 43.00 kg
Total Mass 43.00 kg
Length 1.50 m
Diameter 1.00 m
Span 1.50 m
Shape Box
Manufacturer CGSTL
Bus Type JL-1
Phase Status In Orbit
Owner/State CGSTL/CN

Large Constellations

Loading constellations...